Orbital Elements at Epoch 2459200.5 (2020-Dec-17.0) TDB
Reference: JPL 23 (heliocentric ecliptic J2000)
Element | Value | Uncertainty (1-sigma) | Units |
e | .1098977490359314 | 5.6229e-08 | |
a | 2.420139082704665 | 9.6377e-09 | au |
q | 2.154171245161538 | 1.365e-07 | au |
i | 8.562130641140286 | 4.7606e-06 | deg |
node | 31.77498832323505 | 2.7789e-05 | deg |
peri | 141.2269181816976 | 3.212e-05 | deg |
M | 70.61228176615337 | 1.5425e-05 | deg |
tp | 2458930.765399701534 (2020-Mar-22.26539970) | 5.9006e-05 | TDB |
period | 1375.177995649942 3.77 | 8.2145e-06 2.249e-08 | d yr |
n | .2617842934796638 | 1.5638e-09 | deg/d |
Q | 2.686106920247792 | 1.0697e-08 | au |
|
| | Orbit Determination Parameters
Additional Information
|